Location: Spaichingen
(48.0400°N, 8.4300°E)
Time: 13:43:13
(UTC+02:00)

Tiangong 2 - Pass Details

Date: 28 May 2019
Orbit: 376 x 389 km, 42.8° (Epoch: 18 June)

Event Time Altitude Azimuth Distance (km) Brightness Sun altitude
Rises 22:59:30 0° 263° (W) 2,236 5.3 -13.3°
Reaches altitude 10° 23:02:40 10° 228° (SW) 1,380 3.8 -13.6°
Maximum altitude 23:03:47 12° 207° (SSW) 1,291 3.4 -13.7°
Enters shadow 23:03:48 12° 207° (SSW) 1,291 3.4 -13.7°
